[[{"header":{"parameterUnit":"m.s-1","parameterCategory":1,"la1":30.2991,"la2":30.254,"lo1":-89.0895,"lo2":-89.0444,"dy":0.0017,"dx":0.0017,"nx":28,"ny":28,"refTime":"2023-09-30T03:00:00:Z","depth":0,"parameterNumber":2,"parameterNumberName":"U-component_of_WINDS"},"data":[0,0,0,0,0,0,0,0,0,0,0,0,0,0,0,0,0,0,0,0,0,0,0,0,0,0,0,0,0,0,0,0,0,0,0,0,0,0,0,0,0,0,0,0,0,0,0,0,0,0,0,0,0,0,0,0,0,0,-2.8913,-2.8914,0,-2.9053,-2.9054,-2.9056,-2.9013,-2.901,-2.9007,-2.9004,-2.915,-2.9156,-2.9163,0,0,0,0,0,0,0,0,0,0,0,0,0,-2.8611,-2.8617,-2.8913,-2.8914,-2.8916,-2.9052,-2.9054,-2.9056,-2.9013,-2.9009,-2.9006,-2.9002,-2.9148,-2.9155,-2.9163,0,0,0,0,0,0,0,0,0,0,0,0,0,-2.8746,-2.8619,-2.8912,-2.8911,-2.8912,-2.9052,-2.9054,-2.9057,-2.9014,-2.9009,-2.9005,-2.9001,-2.9145,-2.9155,-2.9165,-2.9315,0,0,-2.9195,-2.9199,0,0,0,0,0,0,0,0,-2.8738,-2.8757,-2.8909,-2.8911,-2.8913,-2.901,-2.9001,-2.9143,-2.9015,-2.8975,-2.9004,-2.8999,-2.9107,-2.912,-2.9156,-2.9322,-2.9328,-2.9196,-2.9202,-2.9206,-2.9209,0,0,0,0,0,0,0,-2.8729,-2.8751,-2.8968,-2.8912,-2.8914,-2.8904,-2.8919,-2.9028,-2.9065,-2.8978,-2.8976,-2.8993,-2.9107,-2.9147,-2.9159,-2.933,-2.9196,-2.9204,-2.9211,-2.9215,-2.9628,-2.9633,0,0,0,0,0,0,-2.8718,-2.8743,-2.8964,-2.8972,-2.8813,-2.8913,-2.8929,-2.8984,-2.9063,-2.9071,-2.8996,-2.899,-2.9132,-2.9148,-2.9164,-2.9347,-2.9206,-2.9215,-2.9221,-2.9623,-2.9629,-2.9635,0,0,0,0,0,0,-2.8712,-2.8738,-2.8958,-2.8857,-2.8884,-2.8923,-2.8985,-2.8989,-2.9028,-2.9077,-2.9083,-2.903,-2.9129,-2.915,-2.9278,-2.9352,-2.922,-2.9229,-2.9617,-2.9625,-2.9632,-2.9713,0,0,0,0,0,0,-2.8703,-2.8736,-2.8793,-2.8859,-2.889,-2.9069,-2.8989,-2.8995,-2.9045,-2.9038,-2.911,-2.9117,-2.9127,-2.9263,-2.9288,-2.9363,-2.9237,-2.9611,-2.9621,-2.963,-2.9704,-2.9723,-2.9738,0,0,0,0,0,-2.8693,-2.881,-2.8796,-2.8823,-2.8961,-2.9073,-2.9091,-2.9099,-2.9051,-2.9109,-2.9141,-2.9115,-2.9339,-2.9277,-2.9304,-2.9383,-2.9607,-2.9618,-2.9629,-2.9697,-2.9719,-2.9738,0,0,0,0,0,0,-2.8753,-2.8819,-2.8804,-2.8946,-2.9004,-2.9065,-2.9139,-2.9122,-2.9196,-2.9187,-2.9195,-2.9211,-2.9343,-2.9375,-2.9305,-2.9534,-2.9466,-2.9483,-2.9508,-2.953,-2.9546,-2.9536,-2.9245,0,0,0,0,0,-2.8782,-2.8866,-2.892,-2.904,-2.907,-2.91,-2.9149,-2.915,-2.9211,-2.9236,-2.9276,-2.9337,-2.9422,-2.9477,-2.9557,-2.9708,-2.9724,-2.9776,-2.9793,-2.9807,-2.9822,-2.9907,-2.9931,-2.9672,-2.9672,-2.9672,0,0,-2.8845,-2.8891,-2.8944,-2.9054,-2.9099,-2.9187,-2.9121,-2.9216,-2.9283,-2.925,-2.9374,-2.9406,-2.9475,-2.9615,-2.9679,-2.9647,-2.9897,-2.9821,-2.9832,-2.984,-2.9921,-2.9945,-2.9967,-2.968,-2.9678,-2.9677,0,0,-2.9004,-2.9047,-2.9153,-2.9199,-2.9269,-2.9288,-2.9313,-2.9377,-2.9398,-2.9521,-2.9499,-2.9578,-2.9723,-2.9774,-2.9818,-2.9998,-2.9978,-3.0023,-3.0113,-3.0195,-3.0216,-3.0234,-3.03,-3.0323,-3.0038,-3.0038,-3.0039,0,-2.9073,-2.9204,-2.9209,-2.9308,-2.9357,-2.9331,-2.944,-2.9485,-2.9577,-2.9613,-2.9574,-2.9757,-2.9801,-2.9954,-2.9998,-3.0034,-3.0065,-3.0016,-3.0212,-3.0231,-3.0248,-3.0311,-3.0335,-3.0044,-3.0043,-3.0043,-3.0042,0,-2.9287,-2.9378,-2.9456,-2.9545,-2.9603,-2.9706,-2.9728,-2.9786,-2.9783,-2.9806,-2.9934,-2.9986,-3.0077,-3.0113,-3.0111,-3.0267,-3.0245,-3.0209,-3.0142,-3.0278,-3.0337,-3.0361,-3.0051,-3.0049,-3.0048,-3.0047,0,0,-2.9488,-2.958,-2.9608,-2.9649,-2.9724,-2.9796,-2.9898,-2.9986,-3.0037,-3.0102,-3.0189,-3.0312,-3.0281,-3.0331,-3.0334,-3.0406,-3.0548,-3.0362,-3.0364,-3.0397,-3.0725,-3.0753,-3.078,-3.0534,-3.0539,-3.0542,-3.072,0,-2.9655,-2.9834,-2.9842,-3.0006,-3.0092,-3.0069,-3.0158,-3.0214,-3.0239,-3.0316,-3.0344,-3.0432,-3.0382,-3.0413,-3.0483,-3.0516,-3.0614,-3.0503,-3.0617,-3.0621,-3.0602,-3.0811,-3.084,-3.1006,-3.0743,-3.0747,-3.075,0,-2.9874,-2.9946,-3.0118,-3.0182,-3.0218,-3.0298,-3.0381,-3.0454,-3.0518,-3.0531,-3.0588,-3.0581,-3.0688,-3.0615,-3.0763,-3.0687,-3.0734,-3.0758,-3.0764,-3.0777,-3.0695,-3.0831,-3.1058,-3.1084,-3.0786,-3.0783,-3.0781,0,-3.0006,-3.0145,-3.0267,-3.0302,-3.038,-3.0437,-3.0472,-3.0531,-3.0585,-3.0657,-3.0692,-3.0776,-3.0823,-3.0888,-3.0905,-3.085,-3.1053,-3.0982,-3.1069,-3.1069,-3.1114,-3.1111,-3.1354,-3.1142,-3.1141,-3.1141,-3.114,0,-3.0193,-3.03,-3.0328,-3.0403,-3.0522,-3.053,-3.0649,-3.068,-3.0733,-3.0815,-3.08,-3.0877,-3.0893,-3.0974,-3.0987,-3.1109,-3.113,-3.1145,-3.1147,-3.1147,-3.1146,-3.118,-3.1169,-3.1147,-3.1146,-3.1145,-3.1144,0,-3.0362,-3.0384,-3.0515,-3.0578,-3.0596,-3.0681,-3.0735,-3.0808,-3.0831,-3.0934,-3.0959,-3.0996,-3.1091,-3.1113,-3.1226,-3.1235,-3.1379,-3.137,-3.1358,-3.1358,-3.1445,-3.1437,-3.1719,-3.1757,-3.1518,-3.152,-3.1522,0,-3.048,-3.0562,-3.0633,-3.0686,-3.0724,-3.081,-3.0864,-3.0876,-3.0933,-3.1013,-3.1076,-3.1169,-3.1244,-3.1397,-3.1434,-3.1521,-3.1515,-3.1608,-3.1528,-3.1526,-3.1519,-3.1514,-3.1524,-3.1623,-3.1626,-3.1628,-3.163,0,-3.0689,-3.0696,-3.0774,-3.0858,-3.0923,-3.0989,-3.1052,-3.1096,-3.1117,-3.1183,-3.1279,-3.1337,-3.1452,-3.1545,-3.1633,-3.167,-3.1655,-3.1654,-3.168,-3.1681,-3.1671,-3.168,-3.1401,-3.1648,-3.1646,-3.1645,-3.1644,-3.1643,-3.0838,-3.091,-3.0971,-3.106,-3.1108,-3.1168,-3.1239,-3.1271,-3.1351,-3.1446,-3.1448,-3.1553,-3.1617,-3.1732,-3.1775,-3.1859,-3.1831,-3.1866,-3.1876,-3.1885,-3.1894,-3.1657,-3.1875,-3.1874,-3.1874,-3.1873,-3.1873,0,-3.1047,-3.1086,-3.1167,-3.1255,-3.1325,-3.1303,-3.1372,-3.1432,-3.1525,-3.1585,-3.1659,-3.1771,-3.1861,-3.1906,-3.1996,-3.2055,-3.205,-3.2078,-3.2075,-3.2084,-3.1913,-3.1883,-3.2081,-3.2081,-3.2081,-3.2081,-3.208,-3.208,-3.1164,-3.1286,-3.1301,-3.1447,-3.1485,-3.1587,-3.1629,-3.1685,-3.1733,-3.1858,-3.1933,-3.1961,-3.2015,-3.2109,-3.2192,-3.2203,-3.2238,-3.227,-3.2278,-3.2117,-3.2096,-3.2076,-3.2048,-3.2277,-3.2277,-3.2442,-3.2444,-3.2445]},{"header":{"parameterUnit":"m.s-1","parameterCategory":1,"la1":30.2991,"la2":30.254,"lo1":-89.0895,"lo2":-89.0444,"dy":0.0017,"dx":0.0017,"nx":28,"ny":28,"refTime":"2023-09-30T03:00:00:Z","depth":0,"parameterNumber":3,"parameterNumberName":"V-component_of_WINDS"},"data":[0,0,0,0,0,0,0,0,0,0,0,0,0,0,0,0,0,0,0,0,0,0,0,0,0,0,0,0,0,0,0,0,0,0,0,0,0,0,0,0,0,0,0,0,0,0,0,0,0,0,0,0,0,0,0,0,0,0,-2.573,-2.573,0,-2.5756,-2.5757,-2.5757,-2.5718,-2.5716,-2.5715,-2.5714,-2.5739,-2.5741,-2.5743,0,0,0,0,0,0,0,0,0,0,0,0,0,-2.5643,-2.5645,-2.573,-2.573,-2.5731,-2.5756,-2.5757,-2.5757,-2.5718,-2.5716,-2.5715,-2.5713,-2.5738,-2.5741,-2.5743,0,0,0,0,0,0,0,0,0,0,0,0,0,-2.5676,-2.5645,-2.573,-2.5714,-2.5713,-2.5756,-2.5757,-2.5757,-2.5718,-2.5716,-2.5714,-2.5712,-2.5738,-2.574,-2.5743,-2.5802,0,0,-2.5752,-2.5753,0,0,0,0,0,0,0,0,-2.5674,-2.5679,-2.5716,-2.5715,-2.5714,-2.5732,-2.5735,-2.5772,-2.5719,-2.5716,-2.5714,-2.5711,-2.5738,-2.5741,-2.575,-2.5804,-2.5805,-2.5752,-2.5754,-2.5755,-2.5756,0,0,0,0,0,0,0,-2.5672,-2.5678,-2.574,-2.5717,-2.5716,-2.5705,-2.5707,-2.5742,-2.5738,-2.5716,-2.5714,-2.5717,-2.5737,-2.5748,-2.5751,-2.5805,-2.5752,-2.5755,-2.5757,-2.5758,-2.5907,-2.5909,0,0,0,0,0,0,-2.5672,-2.5676,-2.5739,-2.5741,-2.5689,-2.5708,-2.5711,-2.5728,-2.5738,-2.5737,-2.5719,-2.5715,-2.5744,-2.5747,-2.5751,-2.582,-2.5755,-2.5758,-2.576,-2.5904,-2.5907,-2.5909,0,0,0,0,0,0,-2.567,-2.5678,-2.5738,-2.5708,-2.5715,-2.5712,-2.5731,-2.573,-2.574,-2.574,-2.5739,-2.5731,-2.5742,-2.5747,-2.579,-2.582,-2.5759,-2.5762,-2.5902,-2.5905,-2.5908,-2.5959,0,0,0,0,0,0,-2.5668,-2.5678,-2.5701,-2.5709,-2.5717,-2.5777,-2.5733,-2.5732,-2.5745,-2.5741,-2.575,-2.575,-2.5741,-2.5786,-2.5793,-2.5823,-2.5764,-2.5899,-2.5903,-2.5907,-2.5954,-2.5963,-2.5971,0,0,0,0,0,-2.5665,-2.5714,-2.5702,-2.571,-2.5746,-2.5779,-2.5784,-2.5773,-2.5748,-2.5771,-2.577,-2.575,-2.5816,-2.579,-2.5798,-2.583,-2.5897,-2.5902,-2.5907,-2.5951,-2.5962,-2.5971,0,0,0,0,0,0,-2.5709,-2.5715,-2.5702,-2.5755,-2.5767,-2.5773,-2.5801,-2.5785,-2.5804,-2.5799,-2.5784,-2.5786,-2.5832,-2.5835,-2.5806,-2.5887,-2.5852,-2.5859,-2.5883,-2.5893,-2.5902,-2.59,-2.5767,0,0,0,0,0,-2.5725,-2.5753,-2.5756,-2.5802,-2.5809,-2.5804,-2.5818,-2.5809,-2.582,-2.5825,-2.5828,-2.5839,-2.5863,-2.5878,-2.59,-2.5955,-2.5956,-2.598,-2.5989,-2.5996,-2.6001,-2.603,-2.604,-2.5926,-2.5926,-2.5925,0,0,-2.5758,-2.5764,-2.5783,-2.5811,-2.5819,-2.5847,-2.5808,-2.584,-2.586,-2.583,-2.587,-2.5872,-2.5884,-2.5933,-2.5955,-2.5937,-2.6033,-2.6002,-2.6008,-2.601,-2.6036,-2.6047,-2.6056,-2.5929,-2.5928,-2.5928,0,0,-2.5832,-2.5841,-2.5879,-2.5889,-2.5902,-2.5898,-2.5907,-2.5915,-2.5916,-2.5956,-2.5934,-2.5957,-2.5998,-2.6007,-2.6017,-2.6094,-2.6075,-2.6101,-2.6145,-2.6172,-2.6181,-2.6189,-2.6216,-2.6225,-2.6107,-2.6107,-2.6107,0,-2.5871,-2.5913,-2.5901,-2.5934,-2.5947,-2.5921,-2.596,-2.5969,-2.5988,-2.5997,-2.5977,-2.6027,-2.6034,-2.6084,-2.6102,-2.6112,-2.6121,-2.61,-2.6181,-2.6189,-2.6196,-2.6221,-2.6231,-2.611,-2.611,-2.611,-2.6109,0,-2.596,-2.599,-2.6019,-2.6039,-2.6055,-2.6091,-2.6083,-2.6101,-2.609,-2.6088,-2.6128,-2.6135,-2.6157,-2.6168,-2.6158,-2.6216,-2.6205,-2.6184,-2.6148,-2.621,-2.6233,-2.6243,-2.6115,-2.6113,-2.6113,-2.6112,0,0,-2.6063,-2.6075,-2.6086,-2.6094,-2.6106,-2.6128,-2.6162,-2.6184,-2.6199,-2.6213,-2.624,-2.6275,-2.6255,-2.6267,-2.6257,-2.6281,-2.634,-2.6257,-2.6257,-2.6271,-2.6404,-2.6419,-2.6431,-2.6328,-2.633,-2.6331,-2.6403,0,-2.6136,-2.6195,-2.6185,-2.6243,-2.6269,-2.6244,-2.6274,-2.6284,-2.6283,-2.6304,-2.6303,-2.6327,-2.63,-2.6306,-2.6329,-2.6328,-2.6367,-2.6323,-2.6352,-2.6354,-2.6349,-2.6443,-2.6459,-2.6526,-2.6412,-2.6413,-2.6414,0,-2.623,-2.6247,-2.6307,-2.6314,-2.6325,-2.6352,-2.637,-2.6391,-2.6402,-2.6399,-2.6412,-2.6397,-2.643,-2.6395,-2.6439,-2.641,-2.6421,-2.6423,-2.6425,-2.6426,-2.6387,-2.6446,-2.6548,-2.6557,-2.6429,-2.6428,-2.6427,0,-2.6297,-2.6336,-2.6376,-2.6384,-2.6394,-2.6413,-2.6418,-2.6426,-2.644,-2.6456,-2.6464,-2.6484,-2.6495,-2.651,-2.65,-2.6476,-2.6546,-2.651,-2.6544,-2.6544,-2.6559,-2.6558,-2.6663,-2.6568,-2.6568,-2.6568,-2.6567,0,-2.6379,-2.6417,-2.6407,-2.6432,-2.6472,-2.646,-2.65,-2.6502,-2.651,-2.6534,-2.6514,-2.6537,-2.6523,-2.6545,-2.6538,-2.6575,-2.658,-2.6578,-2.6576,-2.658,-2.658,-2.6586,-2.6581,-2.657,-2.657,-2.6569,-2.6569,0,-2.6461,-2.6456,-2.6499,-2.6504,-2.6507,-2.6536,-2.6541,-2.6563,-2.6561,-2.6591,-2.6598,-2.6593,-2.6618,-2.661,-2.6636,-2.6631,-2.6678,-2.667,-2.6675,-2.6672,-2.6706,-2.6702,-2.6818,-2.6831,-2.6729,-2.673,-2.6731,0,-2.6514,-2.6542,-2.6551,-2.6565,-2.6572,-2.6596,-2.661,-2.6598,-2.6613,-2.6627,-2.6648,-2.667,-2.6688,-2.6727,-2.6726,-2.6746,-2.6737,-2.6776,-2.674,-2.6743,-2.6737,-2.6735,-2.6737,-2.6783,-2.6784,-2.6785,-2.6786,0,-2.6607,-2.6603,-2.6624,-2.6643,-2.666,-2.6675,-2.6688,-2.6701,-2.6691,-2.6708,-2.6733,-2.6746,-2.6773,-2.6795,-2.6813,-2.6817,-2.6799,-2.6798,-2.6806,-2.681,-2.6811,-2.681,-2.6693,-2.6795,-2.6794,-2.6793,-2.6793,-2.6793,-2.6675,-2.6698,-2.6708,-2.6731,-2.674,-2.6752,-2.6774,-2.6774,-2.6794,-2.6815,-2.6807,-2.6835,-2.6844,-2.6866,-2.6873,-2.6894,-2.6879,-2.6891,-2.6894,-2.6897,-2.6901,-2.6809,-2.6897,-2.6897,-2.6896,-2.6896,-2.6896,0,-2.6766,-2.6771,-2.6793,-2.6811,-2.683,-2.6813,-2.6826,-2.6842,-2.6867,-2.6877,-2.6895,-2.6922,-2.6944,-2.6944,-2.6964,-2.6981,-2.6973,-2.6986,-2.6984,-2.6985,-2.6914,-2.6904,-2.6992,-2.6992,-2.6992,-2.6992,-2.6992,-2.6991,-2.6816,-2.6854,-2.6851,-2.6893,-2.6897,-2.6925,-2.6934,-2.6945,-2.6953,-2.6985,-2.7003,-2.7003,-2.7009,-2.7028,-2.7047,-2.7046,-2.7054,-2.707,-2.7066,-2.7,-2.699,-2.6981,-2.6972,-2.7072,-2.7072,-2.7135,-2.7136,-2.7136]}]]